Regional Weather Roundup
Issued by NWS

Home | Current Version | Previous Version | Text Only | Print | Product List | Glossary Off
Versions: 1 2 3 4 5 6 7 8 9 10 11 12 13 14 15 16 17 18 19 20 21 22 23 24 25 26 27 28 29 30 31 32 33 34 35 36 37 38 39 40 41 42 43 44 45 46 47 48 49 50

000
ASUS43 KBIS 021302
RWRND

NORTH DAKOTA REGIONAL WEATHER ROUNDUP
NATIONAL WEATHER SERVICE BISMARCK ND
700 AM CST FRI DEC 02 2016

NOTE: "FAIR" INDICATES FEW OR NO CLOUDS BELOW 12,000 FEET WITH NO
SIGNIFICANT WEATHER AND/OR OBSTRUCTIONS TO VISIBILITY.


NDZ001>003-009>011-017-021400-
NORTHWEST NORTH DAKOTA

CITY           SKY/WX    TMP DP  RH WIND       PRES   REMARKS
WILLISTON      LGT SNOW  28  24  85 CALM      30.16S FOG
MINOT          CLOUDY    26  20  77 CALM      30.19R
MINOT AFB      CLOUDY    25  20  82 S3        30.18S
$$

NDZ018>021-031>035-040>046-021400-
SOUTHWEST NORTH DAKOTA

CITY           SKY/WX    TMP DP  RH WIND       PRES   REMARKS
BISMARCK       CLOUDY    24  21  88 E5        30.22R WCI  18
DICKINSON      CLOUDY    21  19  92 S6        30.12R WCI  13
GARRISON         N/A     26  21  81 SE7       30.17R WCI  18
HETTINGER ARPT CLOUDY    24  21  88 S5        30.15R WCI  18
$$

NDZ004>008-012>016-024-026-027-054-021400-
NORTHEAST NORTH DAKOTA

CITY           SKY/WX    TMP DP  RH WIND       PRES   REMARKS
GRAND FORKS    CLOUDY    29  22  75 N6        30.21R
GRND FRKS AFB  CLOUDY    28  22  77 NE6       30.21R
DEVILS LAKE    CLOUDY    28  21  75 N10       30.20R WCI  19
$$

NDZ022-023-025-028>030-036>039-047>053-021400-
SOUTHEAST NORTH DAKOTA

CITY           SKY/WX    TMP DP  RH WIND       PRES   REMARKS
FARGO          CLOUDY    29  21  72 N9        30.21R
JAMESTOWN      CLOUDY    26  19  74 N8        30.20R WCI  18
$$




USA.gov is the U.S. government's official web portal to all federal, state and local government web resources and services.